Location: Staunton
(38.1490°N, 79.0720°W)
Time: 00:10:09
(UTC-04:00)

ISS - Pass Details

Date: 13 May 2021
Orbit: 417 x 422 km, 51.6° (Epoch: 18 May)

Event Time Altitude Azimuth Distance (km) Brightness Sun altitude
Rises 05:28:12 0° 310° (NW) 2,368 -0.1 -7.6°
Reaches altitude 10° 05:30:18 10° 311° (NW) 1,502 -1.1 -7.3°
Maximum altitude 05:33:41 83° 41° (NE) 427 -3.7 -6.7°
Drops below altitude 10° 05:37:03 10° 128° (SE) 1,496 -0.6 -6.1°
Sets 05:39:08 0° 129° (SE) 2,357 0.4 -5.7°
